GEFSSGP_prec_meanprecacc_090.txt.gz
Total_Precipitation_Accumulation
0.00 0.01 0.08 0.16 0.26 0.52 0.67 0.42 0.27 0.15 0.11 0.11 0.08 0.06 0.08 0.07 0.07 0.18 0.07 0.02 0.01 0.00 0.00 0.01 0.01 0.01 0.02 0.03 0.05 0.06 0.06 0.06 0.05 0.05 0.04 0.03 0.03 0.02 0.01 0.01 0.01 0.01 0.01 0.02 0.02 0.02 0.02 0.01 0.02
0.00 0.02 0.10 0.17 0.36 0.92 0.74 0.32 0.16 0.10 0.16 0.16 0.08 0.05 0.05 0.04 0.03 0.03 0.04 0.03 0.01 0.00 0.00 0.01 0.01 0.01 0.01 0.03 0.04 0.06 0.07 0.08 0.07 0.07 0.05 0.04 0.04 0.03 0.02 0.01 0.01 0.02 0.02 0.02 0.02 0.02 0.01 0.01 0.01
0.00 0.02 0.09 0.16 0.38 0.75 0.41 0.16 0.09 0.10 0.21 0.21 0.13 0.08 0.05 0.04 0.03 0.03 0.03 0.02 0.01 0.00 0.01 0.01 0.01 0.01 0.01 0.02 0.03 0.05 0.07 0.08 0.09 0.07 0.05 0.05 0.05 0.04 0.04 0.03 0.02 0.02 0.03 0.02 0.02 0.02 0.01 0.01 0.01
0.00 0.02 0.06 0.15 0.34 0.44 0.23 0.12 0.09 0.12 0.24 0.20 0.16 0.17 0.11 0.05 0.04 0.03 0.02 0.02 0.01 0.01 0.01 0.01 0.02 0.01 0.02 0.02 0.03 0.04 0.06 0.07 0.08 0.07 0.06 0.05 0.06 0.06 0.05 0.03 0.03 0.03 0.03 0.03 0.04 0.02 0.02 0.01 0.01
0.00 0.03 0.07 0.15 0.25 0.24 0.18 0.13 0.13 0.12 0.12 0.18 0.21 0.24 0.14 0.08 0.06 0.05 0.03 0.02 0.01 0.01 0.01 0.01 0.02 0.01 0.02 0.02 0.02 0.03 0.05 0.06 0.06 0.06 0.06 0.05 0.05 0.05 0.04 0.04 0.04 0.04 0.04 0.04 0.05 0.04 0.03 0.02 0.01
0.00 0.03 0.05 0.08 0.11 0.12 0.14 0.13 0.12 0.13 0.16 0.24 0.30 0.25 0.18 0.12 0.10 0.12 0.08 0.04 0.03 0.02 0.01 0.02 0.03 0.02 0.02 0.02 0.03 0.04 0.05 0.05 0.06 0.06 0.06 0.06 0.06 0.06 0.05 0.05 0.05 0.06 0.06 0.06 0.05 0.06 0.05 0.04 0.03
0.00 0.01 0.02 0.03 0.05 0.10 0.09 0.08 0.10 0.12 0.25 0.31 0.33 0.34 0.29 0.21 0.16 0.13 0.10 0.09 0.06 0.05 0.05 0.05 0.05 0.04 0.04 0.04 0.05 0.05 0.07 0.08 0.09 0.08 0.08 0.08 0.08 0.08 0.08 0.08 0.09 0.10 0.11 0.11 0.08 0.06 0.08 0.08 0.06
0.00 0.00 0.00 0.01 0.01 0.04 0.04 0.04 0.09 0.13 0.21 0.35 0.42 0.44 0.47 0.32 0.21 0.12 0.14 0.17 0.12 0.09 0.14 0.14 0.09 0.09 0.08 0.06 0.07 0.08 0.10 0.10 0.11 0.10 0.10 0.09 0.09 0.10 0.12 0.13 0.17 0.20 0.23 0.23 0.19 0.14 0.14 0.16 0.14
0.00 0.00 0.00 0.00 0.01 0.01 0.01 0.02 0.06 0.14 0.21 0.27 0.41 0.49 0.38 0.27 0.31 0.20 0.19 0.29 0.30 0.22 0.28 0.28 0.15 0.11 0.09 0.10 0.11 0.14 0.14 0.15 0.14 0.17 0.16 0.16 0.18 0.25 0.38 0.36 0.45 0.40 0.44 0.43 0.40 0.36 0.37 0.40 0.30
0.00 0.00 0.00 0.00 0.00 0.00 0.01 0.02 0.08 0.22 0.36 0.52 0.67 0.62 0.40 0.34 0.48 0.41 0.35 0.48 0.49 0.35 0.44 0.35 0.21 0.17 0.17 0.14 0.18 0.21 0.24 0.37 0.35 0.44 0.52 0.55 0.61 0.55 0.44 0.61 0.79 0.84 0.87 0.84 0.84 0.93 0.87 0.72 0.55
0.00 0.00 0.00 0.00 0.00 0.00 0.00 0.02 0.06 0.17 0.55 0.93 1.09 1.00 0.73 0.48 0.50 0.50 0.55 0.81 0.68 0.44 0.32 0.34 0.28 0.27 0.23 0.22 0.25 0.33 0.44 0.75 0.66 0.61 0.75 0.92 0.84 0.62 0.50 0.63 0.89 1.14 1.17 1.08 1.26 1.49 1.16 1.09 1.15
0.00 0.00 0.00 0.00 0.00 0.00 0.01 0.03 0.11 0.21 0.57 0.79 0.96 1.05 0.94 0.74 0.60 0.55 0.67 0.69 0.71 0.68 0.62 0.52 0.49 0.44 0.49 0.51 0.46 0.42 0.52 0.71 0.71 0.80 0.76 1.00 1.01 0.84 0.77 0.85 0.99 1.21 1.39 1.65 1.68 1.82 1.75 1.71 1.58
0.00 0.00 0.00 0.00 0.00 0.00 0.01 0.05 0.15 0.26 0.50 0.52 0.58 0.69 0.79 0.86 0.98 0.96 0.94 0.94 0.89 0.85 0.82 0.86 0.87 0.87 0.92 0.84 0.76 0.62 0.66 0.70 0.75 0.92 0.95 1.06 1.23 1.23 1.28 1.27 1.23 1.21 1.55 1.94 2.10 1.92 2.13 2.20 1.91
0.00 0.00 0.00 0.00 0.00 0.01 0.02 0.07 0.17 0.30 0.42 0.47 0.48 0.58 0.75 0.89 0.99 1.11 1.07 1.16 1.08 1.02 1.10 1.33 1.38 1.39 1.42 1.43 1.37 1.21 1.13 1.16 1.16 1.24 1.39 1.51 1.62 1.77 1.77 1.68 1.58 1.42 1.50 1.80 2.00 2.03 2.23 2.11 2.02
0.00 0.01 0.04 0.03 0.02 0.03 0.08 0.16 0.32 0.44 0.47 0.60 0.62 0.73 0.83 0.97 1.12 1.04 1.02 1.12 1.18 1.24 1.53 1.83 1.98 2.09 2.13 2.15 2.03 1.80 1.65 1.75 1.92 1.93 2.02 2.02 2.05 2.21 2.12 1.90 1.67 1.63 1.71 1.80 1.80 1.82 1.94 1.78 1.69
0.00 0.02 0.09 0.08 0.05 0.06 0.10 0.35 0.48 0.52 0.60 0.71 0.69 0.83 0.97 0.86 1.01 0.98 0.96 1.17 1.44 1.68 2.04 2.34 2.54 2.76 2.90 2.87 2.62 2.26 2.09 2.12 2.19 2.26 2.24 2.23 2.24 2.20 2.14 1.83 1.55 1.66 1.76 1.74 1.70 1.60 1.69 1.65 1.66
0.02 0.04 0.09 0.15 0.08 0.10 0.17 0.45 0.56 0.57 0.71 0.79 0.84 0.79 0.81 0.87 1.03 1.10 1.11 1.26 1.55 1.91 2.41 2.90 3.29 3.62 3.80 3.48 2.86 2.51 2.43 2.42 2.38 2.40 2.27 2.16 2.06 1.99 2.10 1.79 1.64 1.69 1.64 1.53 1.47 1.62 1.79 1.70 1.68
0.02 0.03 0.09 0.19 0.12 0.12 0.23 0.44 0.64 0.70 0.80 0.95 0.91 0.80 0.72 0.75 0.86 1.00 1.04 1.28 1.60 1.92 2.52 3.24 3.87 4.10 3.92 3.32 2.79 2.66 2.55 2.36 2.19 1.96 1.78 1.65 1.66 1.66 1.76 1.56 1.50 1.60 1.56 1.42 1.49 1.64 1.75 1.54 1.60
0.02 0.04 0.11 0.18 0.11 0.13 0.26 0.43 0.64 0.78 0.87 0.93 1.05 0.94 0.85 0.89 0.97 1.10 1.21 1.38 1.71 2.10 2.65 3.24 3.70 3.74 3.49 3.13 2.74 2.49 2.16 1.93 1.69 1.43 1.24 1.16 1.14 1.20 1.36 1.22 1.31 1.38 1.32 1.25 1.27 1.35 1.38 1.21 1.46
0.04 0.07 0.15 0.18 0.11 0.12 0.28 0.47 0.71 0.75 0.72 0.74 0.91 0.91 0.82 0.86 0.96 1.08 1.28 1.45 1.62 1.99 2.38 2.66 2.58 2.33 2.17 2.08 1.95 1.69 1.65 1.64 1.58 1.47 1.27 1.08 1.08 1.07 1.02 1.02 1.04 1.10 1.13 1.03 1.01 1.14 1.11 0.95 1.21
0.05 0.06 0.12 0.18 0.20 0.20 0.30 0.60 0.79 0.76 0.67 0.62 0.64 0.68 0.67 0.70 0.81 0.98 1.21 1.37 1.39 1.58 1.71 1.64 1.38 1.12 1.08 1.10 1.05 1.18 1.36 1.48 1.53 1.55 1.46 1.29 1.23 1.20 1.14 1.04 0.97 0.94 0.97 0.97 0.95 1.03 1.03 0.91 0.96
0.08 0.05 0.06 0.08 0.18 0.39 0.43 0.75 0.95 0.93 0.89 0.70 0.61 0.65 0.64 0.61 0.61 0.79 0.95 0.97 1.02 1.05 0.92 0.80 0.70 0.60 0.57 0.57 0.63 0.71 0.90 1.20 1.41 1.58 1.63 1.63 1.54 1.38 1.25 1.13 0.95 0.82 0.80 0.84 0.78 0.85 0.96 0.97 0.86
0.05 0.04 0.05 0.08 0.13 0.26 0.34 0.56 0.91 1.04 1.17 0.80 0.61 0.60 0.54 0.56 0.65 0.67 0.62 0.55 0.56 0.55 0.47 0.42 0.45 0.46 0.47 0.48 0.59 0.62 0.58 0.65 0.66 0.74 0.88 1.03 1.15 1.11 0.97 0.91 0.84 0.75 0.69 0.68 0.72 0.83 0.92 0.95 0.87
0.05 0.09 0.14 0.22 0.30 0.44 0.43 0.50 0.78 0.89 0.92 0.60 0.50 0.58 0.48 0.42 0.46 0.45 0.38 0.34 0.33 0.33 0.29 0.35 0.43 0.53 0.53 0.54 0.58 0.58 0.56 0.62 0.61 0.62 0.65 0.64 0.67 0.69 0.67 0.66 0.68 0.67 0.66 0.66 0.66 0.72 0.81 0.90 0.95
0.07 0.14 0.41 0.71 0.93 0.91 0.51 0.51 0.68 0.60 0.58 0.59 0.51 0.50 0.46 0.36 0.33 0.25 0.22 0.22 0.19 0.18 0.17 0.19 0.28 0.38 0.38 0.40 0.46 0.49 0.56 0.59 0.54 0.50 0.47 0.46 0.45 0.48 0.52 0.56 0.61 0.61 0.66 0.72 0.78 0.79 0.79 0.87 0.98
0.06 0.10 0.27 0.44 0.56 0.64 0.47 0.71 0.74 0.54 0.51 0.45 0.35 0.30 0.33 0.23 0.18 0.13 0.10 0.10 0.10 0.10 0.11 0.10 0.13 0.17 0.22 0.28 0.37 0.50 0.67 0.73 0.68 0.66 0.54 0.50 0.48 0.47 0.51 0.58 0.64 0.64 0.66 0.67 0.77 0.82 0.88 0.96 0.99
0.07 0.06 0.09 0.14 0.25 0.43 0.55 0.69 0.60 0.43 0.44 0.36 0.24 0.16 0.15 0.12 0.09 0.06 0.06 0.06 0.05 0.05 0.06 0.06 0.08 0.11 0.19 0.25 0.32 0.37 0.43 0.50 0.51 0.52 0.52 0.49 0.55 0.50 0.55 0.63 0.72 0.75 0.76 0.79 0.83 0.84 0.94 1.12 1.19
0.07 0.06 0.06 0.08 0.17 0.27 0.46 0.69 0.64 0.49 0.47 0.37 0.24 0.14 0.09 0.07 0.05 0.03 0.03 0.03 0.03 0.04 0.06 0.08 0.07 0.14 0.28 0.40 0.46 0.36 0.29 0.27 0.34 0.43 0.50 0.52 0.55 0.56 0.60 0.65 0.68 0.73 0.75 0.79 0.84 0.89 1.00 1.16 1.22
0.10 0.09 0.08 0.08 0.09 0.17 0.34 0.46 0.36 0.31 0.28 0.25 0.18 0.12 0.10 0.07 0.03 0.02 0.01 0.02 0.03 0.06 0.09 0.19 0.24 0.31 0.43 0.58 0.66 0.55 0.38 0.31 0.32 0.36 0.35 0.38 0.46 0.56 0.63 0.60 0.54 0.51 0.57 0.70 0.85 0.92 1.00 1.09 1.13
0.10 0.10 0.09 0.10 0.09 0.11 0.17 0.27 0.17 0.14 0.12 0.10 0.08 0.06 0.04 0.02 0.01 0.01 0.01 0.01 0.03 0.05 0.15 0.38 0.63 0.89 0.95 1.03 1.11 0.96 0.58 0.37 0.30 0.25 0.24 0.30 0.43 0.53 0.59 0.56 0.51 0.49 0.56 0.69 0.84 0.99 1.20 1.33 1.29

GEFSSGP_prec_meanprecacc_096.txt.gz
Total_Precipitation_Accumulation
0.00 0.01 0.09 0.17 0.27 0.53 0.68 0.43 0.28 0.18 0.21 0.34 0.33 0.24 0.21 0.21 0.19 0.26 0.10 0.02 0.01 0.01 0.01 0.03 0.04 0.03 0.03 0.04 0.05 0.06 0.06 0.06 0.06 0.05 0.04 0.03 0.03 0.02 0.02 0.01 0.01 0.02 0.02 0.02 0.02 0.02 0.02 0.02 0.02
0.00 0.02 0.10 0.19 0.37 0.93 0.75 0.34 0.18 0.16 0.27 0.36 0.28 0.19 0.18 0.14 0.11 0.08 0.06 0.04 0.02 0.01 0.01 0.01 0.03 0.03 0.02 0.03 0.04 0.06 0.08 0.08 0.08 0.07 0.05 0.05 0.04 0.03 0.02 0.02 0.02 0.02 0.02 0.02 0.02 0.02 0.02 0.01 0.01
0.00 0.02 0.10 0.19 0.39 0.76 0.42 0.18 0.12 0.16 0.30 0.35 0.27 0.22 0.19 0.15 0.13 0.12 0.05 0.05 0.04 0.02 0.01 0.02 0.03 0.03 0.02 0.03 0.04 0.06 0.07 0.08 0.09 0.08 0.06 0.05 0.05 0.05 0.04 0.03 0.03 0.03 0.03 0.03 0.02 0.02 0.02 0.01 0.01
0.00 0.03 0.08 0.16 0.35 0.44 0.23 0.13 0.11 0.16 0.29 0.28 0.23 0.26 0.23 0.17 0.11 0.11 0.06 0.04 0.04 0.02 0.02 0.02 0.03 0.03 0.03 0.03 0.03 0.05 0.07 0.08 0.09 0.07 0.07 0.06 0.06 0.06 0.05 0.04 0.04 0.03 0.03 0.04 0.04 0.02 0.02 0.01 0.01
0.01 0.03 0.08 0.16 0.25 0.25 0.18 0.14 0.14 0.14 0.16 0.24 0.27 0.32 0.22 0.15 0.14 0.19 0.18 0.08 0.04 0.03 0.02 0.03 0.04 0.03 0.03 0.03 0.04 0.05 0.06 0.07 0.07 0.06 0.07 0.06 0.06 0.06 0.05 0.04 0.04 0.05 0.04 0.04 0.05 0.04 0.03 0.02 0.02
0.00 0.03 0.06 0.08 0.11 0.12 0.14 0.13 0.12 0.14 0.18 0.27 0.34 0.32 0.24 0.19 0.21 0.33 0.26 0.12 0.07 0.06 0.06 0.06 0.07 0.06 0.05 0.05 0.05 0.06 0.07 0.07 0.08 0.08 0.07 0.07 0.07 0.07 0.06 0.05 0.05 0.06 0.07 0.06 0.05 0.06 0.05 0.04 0.03
0.00 0.01 0.02 0.03 0.05 0.10 0.10 0.08 0.11 0.14 0.26 0.33 0.38 0.40 0.35 0.31 0.28 0.30 0.29 0.25 0.15 0.21 0.30 0.21 0.11 0.09 0.08 0.08 0.08 0.08 0.09 0.10 0.10 0.10 0.09 0.10 0.10 0.10 0.09 0.10 0.10 0.11 0.13 0.13 0.09 0.08 0.09 0.09 0.07
0.00 0.00 0.00 0.01 0.01 0.04 0.04 0.05 0.10 0.15 0.22 0.36 0.45 0.52 0.57 0.44 0.37 0.31 0.33 0.35 0.22 0.22 0.32 0.31 0.17 0.13 0.10 0.09 0.10 0.11 0.13 0.13 0.13 0.13 0.12 0.12 0.12 0.13 0.15 0.16 0.21 0.23 0.27 0.27 0.21 0.16 0.16 0.18 0.16
0.00 0.00 0.00 0.00 0.01 0.01 0.01 0.03 0.07 0.14 0.22 0.29 0.46 0.59 0.48 0.39 0.52 0.43 0.35 0.41 0.40 0.32 0.37 0.37 0.21 0.14 0.12 0.12 0.13 0.16 0.17 0.18 0.17 0.19 0.19 0.19 0.21 0.29 0.42 0.41 0.51 0.49 0.52 0.51 0.47 0.42 0.42 0.45 0.34
0.00 0.00 0.00 0.00 0.00 0.00 0.01 0.02 0.08 0.23 0.37 0.55 0.74 0.74 0.53 0.47 0.68 0.67 0.54 0.64 0.62 0.48 0.53 0.43 0.27 0.21 0.19 0.16 0.20 0.24 0.27 0.40 0.38 0.47 0.56 0.58 0.65 0.60 0.50 0.68 0.91 0.99 1.01 0.96 0.94 1.02 0.94 0.77 0.59
0.00 0.00 0.00 0.00 0.00 0.00 0.01 0.02 0.06 0.17 0.56 0.95 1.14 1.06 0.84 0.64 0.77 0.86 0.79 1.03 0.87 0.58 0.42 0.41 0.33 0.30 0.27 0.26 0.29 0.36 0.48 0.79 0.69 0.64 0.79 0.97 0.90 0.68 0.56 0.70 0.99 1.29 1.33 1.20 1.36 1.56 1.21 1.14 1.19
0.00 0.00 0.00 0.00 0.00 0.00 0.01 0.03 0.11 0.21 0.58 0.80 0.98 1.11 1.06 0.94 0.93 0.95 0.92 0.88 0.92 0.87 0.74 0.60 0.57 0.51 0.57 0.59 0.54 0.50 0.60 0.78 0.76 0.83 0.80 1.06 1.07 0.91 0.84 0.91 1.06 1.31 1.50 1.76 1.79 1.90 1.83 1.77 1.63
0.00 0.00 0.00 0.00 0.00 0.01 0.01 0.06 0.15 0.26 0.51 0.53 0.62 0.75 0.92 1.08 1.28 1.31 1.23 1.17 1.12 1.11 1.03 1.00 0.98 0.98 1.04 0.96 0.88 0.73 0.76 0.80 0.84 0.99 1.02 1.14 1.32 1.32 1.35 1.33 1.29 1.28 1.63 2.02 2.18 2.00 2.22 2.27 1.97
0.00 0.00 0.00 0.00 0.01 0.01 0.02 0.07 0.17 0.30 0.44 0.50 0.54 0.69 0.89 1.10 1.22 1.41 1.41 1.40 1.27 1.24 1.30 1.51 1.56 1.57 1.60 1.58 1.49 1.31 1.22 1.25 1.24 1.31 1.47 1.60 1.71 1.85 1.85 1.76 1.65 1.49 1.57 1.84 2.04 2.07 2.28 2.16 2.07
0.00 0.01 0.04 0.04 0.03 0.04 0.08 0.17 0.33 0.45 0.49 0.64 0.72 0.91 0.97 1.18 1.34 1.33 1.31 1.35 1.38 1.44 1.73 2.05 2.22 2.32 2.32 2.31 2.15 1.89 1.74 1.83 1.98 2.01 2.11 2.10 2.14 2.32 2.21 1.96 1.72 1.66 1.74 1.83 1.83 1.85 1.96 1.81 1.74
0.00 0.02 0.09 0.08 0.05 0.06 0.11 0.35 0.49 0.54 0.65 0.79 0.81 1.01 1.18 1.14 1.30 1.29 1.28 1.43 1.72 1.95 2.32 2.62 2.80 3.02 3.09 3.00 2.72 2.34 2.16 2.18 2.24 2.33 2.31 2.30 2.30 2.26 2.19 1.86 1.57 1.67 1.77 1.75 1.71 1.62 1.71 1.67 1.68
0.02 0.05 0.10 0.16 0.08 0.10 0.17 0.45 0.57 0.59 0.77 0.88 1.01 0.94 1.00 1.13 1.35 1.47 1.49 1.60 1.92 2.26 2.76 3.23 3.65 3.90 3.96 3.58 2.93 2.55 2.48 2.46 2.42 2.44 2.32 2.20 2.10 2.04 2.12 1.81 1.65 1.70 1.64 1.54 1.47 1.63 1.79 1.71 1.70
0.02 0.03 0.10 0.19 0.13 0.12 0.23 0.45 0.64 0.71 0.84 1.00 1.00 0.91 0.87 1.00 1.17 1.36 1.48 1.69 1.99 2.29 2.84 3.51 4.12 4.27 4.03 3.39 2.83 2.70 2.59 2.39 2.22 1.99 1.80 1.66 1.67 1.67 1.77 1.57 1.50 1.61 1.57 1.43 1.49 1.64 1.75 1.54 1.61
0.02 0.04 0.12 0.18 0.11 0.13 0.26 0.43 0.65 0.79 0.90 0.96 1.11 1.02 1.01 1.10 1.23 1.46 1.61 1.82 2.16 2.49 2.94 3.45 3.91 3.88 3.58 3.19 2.77 2.51 2.17 1.94 1.71 1.44 1.25 1.17 1.15 1.21 1.37 1.23 1.31 1.39 1.33 1.25 1.27 1.35 1.39 1.21 1.46
0.04 0.07 0.16 0.18 0.11 0.12 0.28 0.48 0.72 0.76 0.74 0.76 0.95 1.00 0.97 1.01 1.14 1.34 1.63 1.76 1.99 2.38 2.65 2.84 2.72 2.42 2.24 2.12 1.97 1.69 1.65 1.64 1.58 1.48 1.29 1.09 1.09 1.08 1.03 1.02 1.04 1.10 1.13 1.03 1.01 1.14 1.12 0.95 1.21
0.05 0.07 0.12 0.18 0.20 0.21 0.31 0.61 0.80 0.78 0.69 0.65 0.68 0.76 0.78 0.85 0.98 1.18 1.53 1.64 1.60 1.85 2.00 1.84 1.50 1.19 1.12 1.11 1.05 1.19 1.36 1.48 1.53 1.55 1.47 1.30 1.24 1.20 1.15 1.05 0.97 0.94 0.97 0.97 0.95 1.03 1.03 0.91 0.96
0.08 0.06 0.07 0.09 0.18 0.39 0.43 0.75 0.95 0.94 0.91 0.72 0.65 0.72 0.71 0.70 0.72 0.93 1.15 1.14 1.13 1.18 1.08 0.95 0.79 0.65 0.59 0.58 0.63 0.71 0.91 1.20 1.41 1.58 1.63 1.63 1.54 1.38 1.26 1.14 0.96 0.82 0.80 0.84 0.78 0.85 0.96 0.97 0.86
0.05 0.04 0.06 0.09 0.14 0.26 0.34 0.56 0.92 1.05 1.18 0.81 0.62 0.63 0.57 0.60 0.71 0.80 0.76 0.68 0.66 0.62 0.54 0.49 0.49 0.48 0.48 0.49 0.59 0.62 0.58 0.65 0.66 0.74 0.88 1.04 1.15 1.11 0.97 0.91 0.85 0.75 0.69 0.68 0.72 0.83 0.92 0.95 0.87
0.06 0.09 0.15 0.23 0.31 0.44 0.43 0.50 0.78 0.89 0.92 0.61 0.51 0.60 0.50 0.45 0.51 0.54 0.50 0.44 0.39 0.38 0.34 0.38 0.45 0.54 0.53 0.55 0.58 0.58 0.56 0.62 0.61 0.62 0.65 0.64 0.67 0.69 0.67 0.66 0.68 0.67 0.66 0.66 0.66 0.72 0.81 0.90 0.95
0.07 0.14 0.42 0.71 0.93 0.91 0.51 0.51 0.68 0.60 0.59 0.59 0.51 0.51 0.48 0.37 0.35 0.28 0.26 0.25 0.21 0.20 0.18 0.21 0.29 0.38 0.39 0.41 0.46 0.49 0.56 0.59 0.54 0.50 0.47 0.46 0.45 0.48 0.52 0.56 0.61 0.61 0.66 0.72 0.78 0.79 0.79 0.87 0.98
0.07 0.10 0.27 0.44 0.57 0.64 0.47 0.71 0.74 0.54 0.51 0.45 0.35 0.30 0.33 0.23 0.19 0.14 0.11 0.11 0.10 0.11 0.11 0.11 0.13 0.18 0.23 0.28 0.37 0.50 0.67 0.73 0.68 0.66 0.54 0.50 0.48 0.47 0.51 0.58 0.64 0.64 0.66 0.67 0.77 0.82 0.88 0.96 0.99
0.08 0.07 0.09 0.14 0.26 0.44 0.56 0.69 0.60 0.43 0.45 0.36 0.24 0.17 0.16 0.13 0.09 0.08 0.07 0.06 0.05 0.05 0.06 0.07 0.08 0.12 0.19 0.25 0.32 0.37 0.43 0.50 0.51 0.52 0.52 0.49 0.55 0.50 0.55 0.63 0.72 0.75 0.76 0.79 0.83 0.84 0.94 1.12 1.19
0.08 0.06 0.06 0.09 0.17 0.28 0.47 0.69 0.64 0.49 0.47 0.37 0.24 0.14 0.09 0.07 0.05 0.04 0.03 0.03 0.03 0.04 0.06 0.08 0.08 0.14 0.28 0.41 0.46 0.36 0.29 0.27 0.34 0.43 0.50 0.52 0.55 0.56 0.60 0.65 0.68 0.73 0.75 0.79 0.84 0.89 1.00 1.16 1.22
0.11 0.09 0.08 0.09 0.10 0.17 0.34 0.46 0.36 0.31 0.28 0.25 0.18 0.12 0.10 0.07 0.04 0.02 0.02 0.02 0.03 0.06 0.09 0.19 0.24 0.32 0.43 0.58 0.66 0.55 0.38 0.31 0.32 0.36 0.35 0.38 0.46 0.56 0.63 0.60 0.54 0.51 0.57 0.70 0.85 0.92 1.00 1.09 1.13
0.11 0.10 0.09 0.11 0.10 0.12 0.17 0.27 0.17 0.14 0.12 0.10 0.08 0.06 0.04 0.02 0.01 0.01 0.01 0.01 0.03 0.05 0.15 0.38 0.63 0.89 0.95 1.03 1.11 0.96 0.58 0.37 0.30 0.25 0.24 0.30 0.43 0.53 0.59 0.56 0.51 0.49 0.56 0.69 0.84 0.99 1.20 1.33 1.29

GEFSSGP_prec_meanprecacc_102.txt.gz
Total_Precipitation_Accumulation
0.00 0.01 0.09 0.17 0.27 0.53 0.68 0.43 0.28 0.19 0.22 0.34 0.33 0.25 0.24 0.28 0.28 0.33 0.12 0.03 0.02 0.02 0.02 0.03 0.05 0.04 0.05 0.05 0.06 0.07 0.07 0.07 0.06 0.06 0.05 0.04 0.03 0.03 0.02 0.02 0.02 0.02 0.02 0.03 0.03 0.03 0.02 0.02 0.02
0.00 0.02 0.10 0.19 0.38 0.93 0.75 0.34 0.18 0.16 0.27 0.36 0.28 0.19 0.19 0.18 0.19 0.12 0.07 0.05 0.03 0.02 0.01 0.01 0.05 0.05 0.04 0.05 0.05 0.07 0.08 0.08 0.08 0.07 0.06 0.05 0.04 0.04 0.03 0.03 0.03 0.03 0.03 0.03 0.02 0.03 0.02 0.02 0.01
0.00 0.02 0.10 0.19 0.39 0.76 0.42 0.18 0.13 0.16 0.31 0.36 0.27 0.22 0.21 0.19 0.20 0.15 0.06 0.06 0.05 0.03 0.02 0.03 0.04 0.04 0.04 0.04 0.05 0.07 0.08 0.09 0.09 0.08 0.06 0.06 0.06 0.06 0.05 0.04 0.03 0.03 0.03 0.03 0.03 0.02 0.02 0.02 0.02
0.01 0.03 0.08 0.17 0.35 0.44 0.23 0.13 0.11 0.16 0.30 0.28 0.24 0.27 0.25 0.21 0.14 0.13 0.08 0.06 0.05 0.04 0.04 0.04 0.05 0.04 0.04 0.05 0.05 0.06 0.07 0.09 0.09 0.08 0.07 0.06 0.07 0.06 0.06 0.04 0.04 0.04 0.04 0.04 0.04 0.03 0.02 0.02 0.02
0.01 0.04 0.09 0.16 0.25 0.25 0.18 0.14 0.14 0.14 0.17 0.25 0.28 0.33 0.24 0.18 0.16 0.22 0.22 0.13 0.06 0.06 0.07 0.07 0.07 0.06 0.06 0.06 0.06 0.06 0.07 0.08 0.08 0.07 0.07 0.07 0.07 0.06 0.06 0.05 0.05 0.05 0.05 0.05 0.06 0.05 0.04 0.03 0.02
0.01 0.03 0.06 0.08 0.11 0.12 0.14 0.13 0.12 0.14 0.18 0.28 0.35 0.33 0.26 0.21 0.23 0.37 0.32 0.20 0.13 0.11 0.13 0.13 0.12 0.11 0.09 0.08 0.07 0.08 0.08 0.09 0.10 0.10 0.09 0.09 0.08 0.08 0.07 0.07 0.07 0.08 0.08 0.07 0.07 0.07 0.06 0.05 0.04
0.00 0.01 0.02 0.03 0.05 0.10 0.10 0.08 0.11 0.14 0.26 0.33 0.38 0.42 0.38 0.40 0.36 0.35 0.34 0.31 0.23 0.28 0.39 0.31 0.18 0.15 0.15 0.13 0.13 0.11 0.12 0.13 0.13 0.13 0.12 0.12 0.12 0.12 0.11 0.12 0.14 0.15 0.16 0.15 0.11 0.09 0.10 0.10 0.08
0.00 0.00 0.00 0.01 0.01 0.04 0.04 0.05 0.10 0.15 0.23 0.36 0.46 0.55 0.65 0.63 0.51 0.39 0.38 0.40 0.29 0.30 0.39 0.39 0.24 0.19 0.16 0.14 0.15 0.16 0.17 0.17 0.16 0.15 0.15 0.14 0.14 0.16 0.18 0.20 0.25 0.28 0.32 0.32 0.25 0.20 0.19 0.19 0.18
0.00 0.00 0.00 0.00 0.01 0.01 0.01 0.03 0.07 0.14 0.22 0.29 0.47 0.62 0.54 0.48 0.61 0.51 0.42 0.47 0.46 0.38 0.42 0.42 0.26 0.20 0.18 0.18 0.19 0.22 0.22 0.22 0.21 0.23 0.22 0.23 0.24 0.33 0.47 0.45 0.57 0.54 0.57 0.56 0.51 0.47 0.46 0.48 0.36
0.00 0.00 0.00 0.00 0.00 0.00 0.01 0.02 0.08 0.23 0.37 0.55 0.75 0.75 0.57 0.53 0.76 0.77 0.64 0.74 0.71 0.54 0.57 0.48 0.32 0.26 0.26 0.23 0.27 0.30 0.32 0.45 0.42 0.52 0.60 0.63 0.71 0.66 0.56 0.75 1.00 1.07 1.08 1.02 0.99 1.07 0.99 0.82 0.63
0.00 0.00 0.00 0.00 0.00 0.00 0.01 0.02 0.06 0.17 0.56 0.96 1.15 1.08 0.87 0.70 0.89 1.00 0.88 1.18 0.98 0.62 0.46 0.45 0.38 0.35 0.32 0.34 0.37 0.45 0.56 0.86 0.76 0.71 0.84 1.03 0.97 0.77 0.68 0.82 1.11 1.39 1.43 1.29 1.45 1.64 1.28 1.21 1.25
0.00 0.00 0.00 0.00 0.00 0.00 0.01 0.03 0.11 0.21 0.58 0.81 0.99 1.13 1.11 1.03 1.04 1.04 0.99 0.96 1.01 0.91 0.78 0.64 0.62 0.58 0.64 0.68 0.63 0.59 0.68 0.85 0.83 0.90 0.86 1.13 1.17 1.02 0.94 1.04 1.18 1.42 1.62 1.89 1.91 2.03 1.95 1.85 1.69
0.00 0.00 0.00 0.00 0.00 0.01 0.01 0.06 0.15 0.26 0.51 0.54 0.63 0.77 0.96 1.15 1.36 1.39 1.33 1.27 1.20 1.17 1.08 1.05 1.04 1.05 1.12 1.05 0.98 0.83 0.85 0.87 0.91 1.06 1.10 1.23 1.42 1.43 1.47 1.46 1.41 1.40 1.75 2.15 2.31 2.12 2.34 2.38 2.06
0.00 0.00 0.00 0.00 0.01 0.01 0.02 0.07 0.17 0.31 0.45 0.51 0.56 0.72 0.95 1.20 1.32 1.50 1.49 1.49 1.37 1.31 1.36 1.57 1.64 1.68 1.70 1.69 1.59 1.40 1.30 1.32 1.31 1.38 1.56 1.70 1.81 1.97 1.99 1.88 1.76 1.59 1.67 1.94 2.14 2.16 2.38 2.25 2.15
0.00 0.01 0.04 0.04 0.03 0.04 0.08 0.17 0.33 0.46 0.51 0.67 0.76 0.97 1.08 1.32 1.49 1.46 1.39 1.42 1.46 1.51 1.81 2.13 2.30 2.44 2.46 2.43 2.25 1.98 1.82 1.91 2.06 2.08 2.17 2.18 2.23 2.42 2.33 2.06 1.80 1.72 1.80 1.90 1.91 1.93 2.03 1.87 1.79
0.00 0.02 0.09 0.08 0.05 0.06 0.11 0.36 0.50 0.55 0.66 0.84 0.88 1.08 1.30 1.27 1.44 1.45 1.38 1.51 1.78 2.02 2.43 2.74 2.89 3.11 3.20 3.12 2.83 2.45 2.25 2.25 2.33 2.39 2.36 2.36 2.37 2.33 2.26 1.93 1.62 1.71 1.82 1.81 1.78 1.68 1.76 1.72 1.72
0.02 0.05 0.10 0.16 0.08 0.10 0.17 0.46 0.57 0.59 0.77 0.91 1.07 1.04 1.11 1.23 1.49 1.62 1.62 1.69 2.00 2.35 2.87 3.36 3.77 4.00 4.05 3.66 3.02 2.63 2.55 2.52 2.48 2.50 2.37 2.25 2.14 2.08 2.16 1.84 1.68 1.74 1.68 1.58 1.51 1.66 1.82 1.74 1.72
0.02 0.03 0.10 0.19 0.13 0.12 0.24 0.45 0.64 0.72 0.85 1.02 1.06 0.99 0.97 1.07 1.26 1.49 1.65 1.84 2.11 2.41 2.97 3.63 4.22 4.37 4.12 3.46 2.90 2.76 2.64 2.43 2.26 2.04 1.85 1.70 1.71 1.70 1.79 1.59 1.54 1.64 1.59 1.45 1.52 1.67 1.77 1.56 1.62
0.02 0.04 0.12 0.18 0.11 0.13 0.26 0.43 0.65 0.79 0.91 0.97 1.15 1.07 1.09 1.17 1.30 1.57 1.76 1.99 2.33 2.66 3.10 3.61 4.03 3.98 3.67 3.27 2.85 2.58 2.22 1.98 1.75 1.48 1.29 1.20 1.17 1.23 1.39 1.25 1.34 1.41 1.34 1.27 1.28 1.37 1.40 1.22 1.46
0.04 0.07 0.16 0.18 0.11 0.13 0.28 0.48 0.72 0.76 0.74 0.77 0.97 1.03 1.02 1.06 1.20 1.43 1.74 1.92 2.18 2.54 2.80 2.99 2.83 2.52 2.33 2.21 2.05 1.76 1.70 1.67 1.61 1.50 1.30 1.11 1.11 1.10 1.05 1.04 1.05 1.11 1.15 1.05 1.02 1.15 1.12 0.96 1.22
0.06 0.07 0.12 0.18 0.20 0.21 0.31 0.61 0.80 0.78 0.69 0.65 0.68 0.77 0.81 0.88 1.02 1.26 1.63 1.77 1.74 1.97 2.09 1.95 1.60 1.28 1.20 1.18 1.10 1.22 1.39 1.50 1.54 1.57 1.48 1.31 1.25 1.22 1.16 1.07 0.99 0.95 0.98 0.98 0.96 1.04 1.04 0.92 0.97
0.08 0.06 0.07 0.09 0.18 0.39 0.43 0.76 0.95 0.94 0.91 0.73 0.65 0.72 0.72 0.73 0.75 0.99 1.24 1.24 1.25 1.27 1.16 1.05 0.90 0.72 0.64 0.62 0.66 0.74 0.93 1.22 1.42 1.59 1.64 1.64 1.54 1.39 1.27 1.15 0.97 0.84 0.81 0.85 0.79 0.85 0.97 0.98 0.87
0.05 0.04 0.06 0.09 0.14 0.26 0.34 0.57 0.92 1.05 1.18 0.81 0.62 0.63 0.58 0.62 0.73 0.85 0.83 0.76 0.75 0.71 0.63 0.56 0.56 0.53 0.52 0.52 0.61 0.64 0.60 0.66 0.67 0.75 0.89 1.04 1.16 1.12 0.98 0.92 0.86 0.76 0.69 0.69 0.72 0.83 0.92 0.95 0.87
0.06 0.09 0.15 0.23 0.31 0.45 0.43 0.50 0.78 0.89 0.92 0.61 0.51 0.60 0.51 0.46 0.52 0.58 0.55 0.49 0.46 0.44 0.41 0.44 0.50 0.58 0.56 0.57 0.60 0.60 0.58 0.63 0.61 0.62 0.66 0.64 0.68 0.70 0.67 0.66 0.69 0.68 0.66 0.66 0.67 0.73 0.82 0.90 0.95
0.07 0.14 0.42 0.71 0.93 0.91 0.51 0.51 0.68 0.60 0.59 0.59 0.51 0.51 0.48 0.38 0.36 0.31 0.30 0.28 0.27 0.26 0.23 0.24 0.32 0.41 0.41 0.43 0.47 0.51 0.57 0.60 0.55 0.50 0.48 0.46 0.46 0.49 0.52 0.56 0.61 0.62 0.67 0.72 0.79 0.79 0.80 0.88 0.99
0.07 0.11 0.28 0.45 0.57 0.64 0.47 0.71 0.74 0.54 0.51 0.45 0.35 0.30 0.33 0.24 0.20 0.16 0.14 0.13 0.16 0.17 0.15 0.14 0.15 0.20 0.25 0.30 0.38 0.51 0.68 0.73 0.69 0.67 0.54 0.50 0.49 0.48 0.51 0.59 0.65 0.65 0.67 0.67 0.77 0.82 0.89 0.96 1.00
0.08 0.07 0.09 0.14 0.26 0.44 0.56 0.69 0.60 0.43 0.45 0.36 0.24 0.17 0.16 0.13 0.09 0.08 0.09 0.08 0.08 0.09 0.09 0.09 0.10 0.13 0.20 0.26 0.33 0.38 0.43 0.50 0.51 0.53 0.52 0.49 0.56 0.51 0.56 0.64 0.72 0.75 0.76 0.79 0.83 0.84 0.94 1.12 1.20
0.08 0.07 0.07 0.09 0.18 0.28 0.47 0.69 0.64 0.49 0.47 0.37 0.24 0.14 0.09 0.07 0.05 0.04 0.04 0.04 0.04 0.06 0.08 0.10 0.09 0.15 0.29 0.41 0.46 0.37 0.29 0.28 0.35 0.43 0.50 0.52 0.56 0.56 0.60 0.65 0.68 0.73 0.75 0.79 0.84 0.89 1.00 1.16 1.23
0.11 0.09 0.08 0.09 0.10 0.18 0.35 0.46 0.36 0.31 0.28 0.25 0.18 0.12 0.10 0.07 0.04 0.02 0.02 0.02 0.05 0.07 0.10 0.20 0.25 0.32 0.44 0.59 0.67 0.56 0.39 0.31 0.33 0.36 0.36 0.38 0.47 0.56 0.63 0.60 0.54 0.51 0.57 0.70 0.85 0.92 1.01 1.09 1.13
0.11 0.10 0.10 0.12 0.11 0.12 0.17 0.27 0.17 0.14 0.12 0.10 0.08 0.06 0.04 0.02 0.01 0.01 0.01 0.01 0.03 0.06 0.15 0.38 0.63 0.89 0.96 1.03 1.11 0.97 0.59 0.37 0.30 0.25 0.24 0.30 0.43 0.53 0.59 0.56 0.51 0.49 0.56 0.69 0.84 0.99 1.20 1.33 1.29

GEFSSGP_prec_meanprecacc_108.txt.gz
Total_Precipitation_Accumulation
0.00 0.01 0.09 0.18 0.33 0.65 0.77 0.44 0.28 0.19 0.22 0.35 0.33 0.25 0.25 0.31 0.34 0.47 0.16 0.05 0.02 0.02 0.02 0.03 0.05 0.05 0.05 0.07 0.08 0.09 0.08 0.08 0.07 0.06 0.05 0.04 0.04 0.03 0.03 0.03 0.03 0.03 0.03 0.03 0.04 0.04 0.03 0.03 0.03
0.00 0.02 0.10 0.21 0.44 0.99 0.79 0.34 0.19 0.16 0.27 0.36 0.28 0.20 0.21 0.21 0.20 0.13 0.08 0.06 0.03 0.02 0.02 0.01 0.05 0.05 0.05 0.07 0.07 0.09 0.09 0.09 0.09 0.08 0.06 0.06 0.05 0.05 0.04 0.04 0.03 0.04 0.04 0.04 0.04 0.04 0.03 0.02 0.02
0.00 0.02 0.11 0.20 0.41 0.77 0.42 0.18 0.13 0.16 0.31 0.36 0.27 0.23 0.23 0.23 0.22 0.15 0.07 0.07 0.06 0.03 0.02 0.03 0.04 0.04 0.05 0.05 0.07 0.08 0.09 0.10 0.10 0.09 0.06 0.07 0.07 0.07 0.07 0.05 0.04 0.04 0.04 0.04 0.04 0.03 0.03 0.03 0.03
0.01 0.03 0.10 0.18 0.36 0.45 0.24 0.13 0.11 0.17 0.30 0.28 0.24 0.28 0.26 0.23 0.14 0.13 0.08 0.06 0.07 0.05 0.04 0.04 0.05 0.04 0.05 0.06 0.07 0.08 0.10 0.11 0.11 0.08 0.08 0.08 0.08 0.08 0.07 0.05 0.05 0.05 0.05 0.05 0.05 0.04 0.03 0.03 0.03
0.01 0.05 0.11 0.19 0.28 0.25 0.18 0.14 0.14 0.15 0.17 0.25 0.29 0.36 0.28 0.19 0.17 0.23 0.22 0.14 0.07 0.07 0.09 0.08 0.07 0.06 0.07 0.07 0.07 0.09 0.09 0.09 0.10 0.09 0.09 0.08 0.08 0.07 0.07 0.06 0.06 0.06 0.05 0.06 0.07 0.06 0.04 0.03 0.03
0.01 0.04 0.08 0.10 0.12 0.12 0.14 0.13 0.12 0.14 0.19 0.30 0.37 0.35 0.32 0.23 0.25 0.38 0.34 0.22 0.14 0.13 0.15 0.15 0.13 0.12 0.11 0.09 0.09 0.10 0.11 0.11 0.11 0.11 0.10 0.10 0.10 0.09 0.09 0.09 0.08 0.08 0.08 0.07 0.07 0.08 0.07 0.06 0.05
0.01 0.01 0.03 0.04 0.05 0.10 0.10 0.08 0.11 0.14 0.27 0.36 0.40 0.44 0.43 0.44 0.39 0.37 0.37 0.33 0.24 0.29 0.41 0.33 0.19 0.16 0.17 0.16 0.15 0.14 0.14 0.15 0.15 0.15 0.13 0.13 0.13 0.13 0.13 0.14 0.14 0.15 0.16 0.16 0.11 0.09 0.11 0.10 0.09
0.00 0.00 0.01 0.01 0.01 0.04 0.04 0.05 0.10 0.15 0.23 0.38 0.46 0.58 0.73 0.68 0.57 0.44 0.43 0.44 0.32 0.33 0.41 0.41 0.26 0.21 0.17 0.16 0.17 0.18 0.19 0.20 0.18 0.17 0.17 0.16 0.15 0.18 0.20 0.21 0.27 0.28 0.32 0.32 0.26 0.20 0.19 0.20 0.18
0.00 0.00 0.00 0.00 0.01 0.01 0.01 0.03 0.07 0.14 0.22 0.30 0.48 0.64 0.58 0.51 0.68 0.61 0.57 0.58 0.54 0.44 0.46 0.44 0.27 0.22 0.21 0.20 0.20 0.24 0.25 0.25 0.23 0.25 0.23 0.25 0.30 0.41 0.55 0.49 0.59 0.55 0.58 0.56 0.52 0.47 0.47 0.49 0.36
0.00 0.00 0.00 0.00 0.00 0.00 0.01 0.02 0.08 0.23 0.38 0.58 0.78 0.78 0.59 0.56 0.84 0.92 0.86 0.89 0.82 0.64 0.65 0.52 0.34 0.28 0.30 0.25 0.30 0.35 0.37 0.49 0.47 0.59 0.64 0.71 0.82 0.80 0.68 0.84 1.03 1.09 1.09 1.03 1.02 1.09 1.00 0.84 0.66
0.00 0.00 0.00 0.00 0.00 0.00 0.01 0.02 0.06 0.18 0.57 0.98 1.17 1.10 0.93 0.77 1.00 1.22 1.20 1.36 1.10 0.71 0.59 0.57 0.43 0.39 0.36 0.40 0.43 0.51 0.64 0.94 0.83 0.78 0.90 1.14 1.07 0.86 0.77 0.92 1.17 1.44 1.47 1.36 1.54 1.70 1.34 1.29 1.32
0.00 0.00 0.00 0.00 0.00 0.00 0.01 0.03 0.11 0.21 0.59 0.81 1.00 1.15 1.16 1.10 1.14 1.21 1.19 1.13 1.26 1.08 0.89 0.78 0.70 0.64 0.70 0.74 0.70 0.66 0.74 0.92 0.90 0.97 0.93 1.23 1.27 1.13 1.08 1.16 1.29 1.52 1.72 2.01 2.02 2.14 2.05 1.95 1.77
0.00 0.00 0.00 0.00 0.00 0.01 0.01 0.06 0.15 0.26 0.52 0.55 0.64 0.80 1.02 1.22 1.44 1.52 1.48 1.45 1.38 1.40 1.25 1.19 1.16 1.14 1.18 1.13 1.06 0.90 0.92 0.94 0.98 1.12 1.17 1.30 1.52 1.55 1.60 1.58 1.51 1.47 1.84 2.24 2.40 2.20 2.42 2.47 2.12
0.00 0.00 0.00 0.00 0.01 0.01 0.02 0.07 0.17 0.31 0.45 0.51 0.58 0.76 1.01 1.27 1.40 1.62 1.64 1.65 1.51 1.50 1.56 1.72 1.77 1.79 1.80 1.78 1.69 1.50 1.37 1.39 1.37 1.43 1.59 1.75 1.89 2.05 2.08 1.96 1.84 1.66 1.74 2.02 2.23 2.24 2.46 2.34 2.25
0.00 0.01 0.04 0.04 0.03 0.04 0.08 0.18 0.34 0.47 0.52 0.67 0.78 1.00 1.12 1.39 1.59 1.58 1.52 1.55 1.56 1.65 2.02 2.28 2.41 2.56 2.56 2.52 2.32 2.04 1.88 1.95 2.11 2.14 2.22 2.23 2.30 2.48 2.38 2.13 1.87 1.79 1.85 1.97 1.97 1.99 2.11 1.97 1.90
0.00 0.03 0.10 0.09 0.05 0.06 0.12 0.37 0.51 0.56 0.67 0.84 0.90 1.12 1.36 1.37 1.57 1.59 1.52 1.63 1.89 2.12 2.57 2.88 2.99 3.22 3.30 3.21 2.91 2.52 2.32 2.31 2.38 2.45 2.45 2.45 2.44 2.37 2.31 2.00 1.68 1.77 1.87 1.86 1.82 1.73 1.82 1.80 1.84
0.02 0.06 0.11 0.17 0.09 0.10 0.17 0.46 0.58 0.59 0.78 0.92 1.09 1.08 1.18 1.33 1.60 1.77 1.77 1.83 2.13 2.45 2.99 3.49 3.91 4.13 4.16 3.76 3.12 2.74 2.69 2.65 2.57 2.58 2.46 2.35 2.21 2.11 2.21 1.90 1.74 1.77 1.71 1.61 1.53 1.71 1.88 1.80 1.81
0.02 0.04 0.11 0.20 0.13 0.13 0.24 0.45 0.65 0.72 0.85 1.03 1.08 1.03 1.07 1.20 1.39 1.65 1.82 1.99 2.29 2.56 3.09 3.77 4.37 4.53 4.28 3.60 3.05 2.92 2.80 2.59 2.40 2.15 1.94 1.78 1.77 1.73 1.82 1.62 1.57 1.66 1.61 1.48 1.55 1.70 1.80 1.60 1.66
0.02 0.04 0.12 0.19 0.12 0.14 0.27 0.43 0.65 0.79 0.91 0.97 1.16 1.09 1.16 1.28 1.42 1.72 1.96 2.16 2.51 2.84 3.26 3.78 4.22 4.15 3.84 3.44 3.02 2.74 2.38 2.13 1.88 1.58 1.36 1.25 1.20 1.25 1.41 1.27 1.35 1.42 1.36 1.28 1.30 1.38 1.41 1.24 1.49
0.04 0.07 0.16 0.19 0.12 0.13 0.28 0.48 0.73 0.77 0.74 0.77 0.97 1.04 1.05 1.11 1.28 1.53 1.89 2.08 2.35 2.74 2.97 3.14 2.99 2.66 2.45 2.34 2.18 1.88 1.81 1.78 1.71 1.59 1.38 1.15 1.13 1.11 1.06 1.06 1.07 1.12 1.16 1.06 1.03 1.16 1.14 0.97 1.24
0.06 0.07 0.13 0.18 0.20 0.21 0.31 0.61 0.81 0.79 0.69 0.66 0.69 0.78 0.82 0.92 1.09 1.33 1.71 1.87 1.91 2.16 2.25 2.11 1.75 1.42 1.32 1.29 1.20 1.32 1.50 1.61 1.63 1.64 1.55 1.35 1.27 1.23 1.17 1.08 1.00 0.96 0.98 0.98 0.97 1.04 1.05 0.94 0.98
0.09 0.06 0.07 0.09 0.18 0.40 0.44 0.77 0.97 0.94 0.91 0.75 0.65 0.72 0.73 0.75 0.79 1.05 1.29 1.31 1.37 1.45 1.33 1.20 1.03 0.87 0.77 0.74 0.77 0.84 1.00 1.28 1.48 1.63 1.67 1.67 1.56 1.40 1.28 1.15 0.98 0.84 0.81 0.86 0.79 0.86 0.98 0.99 0.89
0.05 0.04 0.06 0.09 0.14 0.27 0.37 0.59 0.93 1.06 1.19 0.82 0.63 0.64 0.58 0.63 0.76 0.89 0.89 0.82 0.85 0.85 0.79 0.70 0.67 0.65 0.63 0.63 0.72 0.73 0.66 0.70 0.70 0.77 0.92 1.06 1.18 1.13 0.98 0.92 0.86 0.77 0.70 0.70 0.74 0.85 0.94 0.96 0.88
0.06 0.09 0.15 0.23 0.34 0.54 0.49 0.53 0.79 0.90 0.93 0.61 0.51 0.60 0.51 0.47 0.54 0.62 0.62 0.57 0.54 0.54 0.53 0.57 0.60 0.66 0.64 0.66 0.68 0.67 0.63 0.67 0.65 0.66 0.69 0.66 0.69 0.71 0.68 0.67 0.69 0.69 0.67 0.68 0.68 0.74 0.84 0.92 0.96
0.08 0.14 0.45 0.78 1.06 1.05 0.56 0.54 0.70 0.61 0.59 0.59 0.51 0.51 0.48 0.39 0.38 0.34 0.34 0.33 0.33 0.31 0.29 0.38 0.42 0.47 0.46 0.48 0.52 0.55 0.62 0.63 0.58 0.52 0.49 0.47 0.46 0.49 0.53 0.57 0.62 0.63 0.68 0.74 0.80 0.81 0.82 0.89 1.00
0.07 0.11 0.30 0.50 0.65 0.73 0.53 0.74 0.76 0.54 0.51 0.45 0.35 0.30 0.33 0.24 0.20 0.17 0.16 0.15 0.19 0.20 0.19 0.21 0.26 0.26 0.29 0.34 0.43 0.55 0.71 0.75 0.71 0.69 0.56 0.51 0.50 0.48 0.51 0.59 0.66 0.66 0.67 0.68 0.78 0.83 0.90 0.97 1.01
0.08 0.07 0.10 0.15 0.26 0.45 0.59 0.72 0.62 0.43 0.45 0.36 0.24 0.17 0.16 0.13 0.09 0.09 0.10 0.10 0.10 0.11 0.11 0.13 0.15 0.18 0.24 0.30 0.37 0.41 0.45 0.52 0.53 0.54 0.53 0.50 0.57 0.52 0.56 0.64 0.73 0.76 0.77 0.79 0.83 0.85 0.95 1.13 1.20
0.08 0.07 0.07 0.09 0.20 0.32 0.52 0.74 0.69 0.51 0.47 0.37 0.24 0.14 0.09 0.07 0.05 0.04 0.04 0.04 0.05 0.07 0.11 0.14 0.14 0.19 0.31 0.44 0.49 0.38 0.31 0.29 0.36 0.45 0.51 0.53 0.57 0.58 0.61 0.65 0.69 0.74 0.75 0.79 0.84 0.90 1.00 1.16 1.24
0.12 0.10 0.08 0.10 0.11 0.20 0.39 0.52 0.40 0.32 0.29 0.26 0.18 0.12 0.10 0.07 0.04 0.02 0.02 0.03 0.06 0.08 0.12 0.23 0.29 0.36 0.47 0.61 0.68 0.58 0.41 0.33 0.34 0.37 0.37 0.40 0.48 0.58 0.64 0.61 0.55 0.52 0.57 0.70 0.86 0.92 1.01 1.10 1.14
0.12 0.11 0.11 0.15 0.13 0.13 0.19 0.29 0.18 0.15 0.13 0.10 0.08 0.06 0.04 0.02 0.01 0.01 0.01 0.02 0.04 0.06 0.15 0.39 0.65 0.92 0.99 1.06 1.13 0.98 0.60 0.39 0.31 0.26 0.25 0.32 0.44 0.55 0.60 0.57 0.52 0.50 0.56 0.69 0.85 1.00 1.20 1.33 1.30

GEFSSGP_prec_meanprecacc_114.txt.gz
Total_Precipitation_Accumulation
0.00 0.03 0.13 0.29 0.48 0.91 0.98 0.53 0.35 0.23 0.24 0.36 0.35 0.26 0.27 0.35 0.39 0.54 0.26 0.23 0.12 0.04 0.02 0.04 0.06 0.05 0.06 0.07 0.08 0.09 0.08 0.08 0.07 0.07 0.06 0.05 0.04 0.04 0.03 0.03 0.04 0.04 0.04 0.04 0.04 0.04 0.03 0.03 0.04
0.01 0.04 0.18 0.37 0.68 1.27 0.88 0.38 0.24 0.19 0.29 0.39 0.31 0.23 0.27 0.25 0.23 0.16 0.14 0.26 0.11 0.04 0.02 0.01 0.05 0.05 0.05 0.07 0.07 0.09 0.10 0.10 0.10 0.08 0.07 0.06 0.06 0.05 0.05 0.04 0.04 0.04 0.04 0.04 0.04 0.04 0.03 0.03 0.03
0.01 0.06 0.21 0.34 0.61 0.92 0.46 0.20 0.15 0.18 0.33 0.38 0.29 0.25 0.28 0.31 0.29 0.19 0.12 0.14 0.10 0.04 0.03 0.03 0.04 0.04 0.05 0.06 0.08 0.09 0.10 0.11 0.11 0.09 0.07 0.07 0.07 0.08 0.07 0.06 0.04 0.04 0.05 0.05 0.04 0.03 0.03 0.03 0.03
0.02 0.09 0.19 0.32 0.48 0.49 0.25 0.14 0.12 0.18 0.32 0.30 0.26 0.35 0.38 0.43 0.26 0.19 0.14 0.11 0.09 0.06 0.05 0.04 0.05 0.05 0.05 0.06 0.07 0.09 0.10 0.11 0.11 0.09 0.09 0.08 0.09 0.08 0.07 0.06 0.06 0.05 0.05 0.05 0.06 0.04 0.03 0.03 0.04
0.03 0.12 0.23 0.33 0.35 0.27 0.19 0.15 0.15 0.16 0.18 0.27 0.32 0.48 0.46 0.43 0.27 0.31 0.30 0.17 0.09 0.09 0.09 0.08 0.08 0.07 0.07 0.07 0.08 0.09 0.10 0.10 0.10 0.09 0.09 0.09 0.08 0.08 0.07 0.07 0.06 0.06 0.05 0.06 0.07 0.06 0.04 0.04 0.04
0.02 0.08 0.16 0.17 0.14 0.13 0.15 0.14 0.13 0.15 0.20 0.31 0.41 0.42 0.46 0.40 0.35 0.49 0.43 0.27 0.17 0.14 0.16 0.16 0.14 0.13 0.11 0.10 0.09 0.10 0.11 0.12 0.12 0.12 0.11 0.10 0.10 0.10 0.09 0.10 0.08 0.09 0.09 0.08 0.07 0.08 0.07 0.06 0.06
0.02 0.03 0.06 0.05 0.06 0.10 0.10 0.09 0.11 0.14 0.27 0.37 0.44 0.50 0.61 0.66 0.53 0.49 0.49 0.47 0.30 0.31 0.42 0.34 0.20 0.17 0.17 0.16 0.15 0.14 0.15 0.17 0.16 0.15 0.14 0.13 0.14 0.14 0.14 0.15 0.15 0.15 0.16 0.16 0.12 0.09 0.11 0.11 0.09
0.00 0.01 0.02 0.02 0.02 0.04 0.04 0.05 0.10 0.15 0.24 0.40 0.50 0.61 0.83 0.84 0.68 0.59 0.59 0.69 0.46 0.38 0.44 0.43 0.28 0.22 0.18 0.16 0.17 0.19 0.20 0.21 0.20 0.18 0.17 0.16 0.16 0.18 0.21 0.22 0.27 0.29 0.32 0.32 0.26 0.20 0.19 0.20 0.18
0.00 0.01 0.01 0.00 0.01 0.01 0.02 0.03 0.07 0.14 0.22 0.30 0.51 0.70 0.70 0.64 0.80 0.75 0.77 0.96 0.85 0.60 0.53 0.48 0.29 0.24 0.23 0.21 0.21 0.25 0.25 0.25 0.25 0.26 0.24 0.26 0.31 0.43 0.57 0.52 0.61 0.56 0.58 0.56 0.52 0.47 0.47 0.49 0.37
0.00 0.00 0.00 0.00 0.00 0.00 0.01 0.02 0.08 0.23 0.38 0.59 0.84 0.82 0.65 0.62 0.93 1.08 1.14 1.28 1.18 0.90 0.78 0.61 0.39 0.31 0.32 0.27 0.31 0.35 0.37 0.49 0.48 0.60 0.66 0.72 0.84 0.83 0.71 0.88 1.08 1.12 1.11 1.04 1.02 1.10 1.00 0.85 0.67
0.00 0.00 0.00 0.00 0.00 0.00 0.01 0.02 0.06 0.18 0.58 0.99 1.21 1.14 0.97 0.87 1.11 1.43 1.62 1.77 1.40 0.94 0.79 0.75 0.59 0.47 0.40 0.42 0.44 0.52 0.65 0.95 0.84 0.79 0.92 1.17 1.10 0.90 0.82 0.96 1.21 1.48 1.50 1.38 1.56 1.72 1.35 1.33 1.37
0.00 0.00 0.00 0.00 0.00 0.00 0.01 0.03 0.11 0.21 0.59 0.82 1.02 1.17 1.22 1.22 1.24 1.38 1.54 1.59 1.61 1.35 1.10 0.98 0.91 0.78 0.79 0.78 0.72 0.67 0.76 0.94 0.92 1.00 0.96 1.26 1.30 1.16 1.12 1.20 1.32 1.54 1.74 2.02 2.04 2.16 2.07 1.98 1.81
0.00 0.00 0.00 0.00 0.00 0.01 0.01 0.06 0.15 0.27 0.52 0.55 0.65 0.82 1.10 1.30 1.52 1.65 1.69 1.79 1.78 1.72 1.50 1.40 1.30 1.26 1.31 1.21 1.11 0.93 0.95 0.97 1.01 1.19 1.21 1.33 1.54 1.57 1.62 1.61 1.52 1.48 1.85 2.26 2.42 2.21 2.45 2.50 2.16
0.00 0.00 0.00 0.00 0.01 0.02 0.03 0.08 0.18 0.32 0.46 0.52 0.58 0.78 1.05 1.34 1.50 1.78 1.92 2.03 1.87 1.81 1.86 2.09 2.02 1.96 1.93 1.86 1.75 1.55 1.41 1.43 1.42 1.48 1.63 1.77 1.91 2.06 2.09 1.97 1.85 1.67 1.75 2.03 2.23 2.25 2.47 2.36 2.26
0.00 0.01 0.04 0.04 0.03 0.04 0.10 0.19 0.35 0.48 0.53 0.68 0.79 1.01 1.16 1.44 1.66 1.70 1.73 1.82 1.81 1.93 2.30 2.66 2.83 2.79 2.71 2.61 2.39 2.11 1.94 2.01 2.17 2.20 2.25 2.26 2.32 2.50 2.39 2.14 1.88 1.79 1.86 1.97 1.97 1.99 2.12 1.97 1.92
0.01 0.03 0.10 0.11 0.07 0.08 0.14 0.38 0.52 0.57 0.68 0.85 0.91 1.15 1.41 1.43 1.64 1.72 1.71 1.84 2.13 2.37 2.79 3.14 3.41 3.52 3.44 3.32 3.00 2.59 2.38 2.36 2.43 2.49 2.48 2.47 2.47 2.39 2.32 2.00 1.69 1.77 1.87 1.86 1.82 1.73 1.82 1.80 1.84
0.02 0.06 0.12 0.19 0.11 0.12 0.18 0.47 0.59 0.61 0.80 0.93 1.10 1.12 1.26 1.42 1.70 1.93 2.02 2.12 2.40 2.74 3.20 3.69 4.19 4.40 4.30 3.86 3.21 2.80 2.75 2.72 2.63 2.61 2.49 2.38 2.24 2.13 2.22 1.90 1.74 1.78 1.72 1.61 1.54 1.71 1.88 1.80 1.82
0.03 0.05 0.12 0.22 0.15 0.14 0.25 0.47 0.67 0.75 0.88 1.05 1.09 1.07 1.17 1.32 1.48 1.77 2.03 2.36 2.57 2.90 3.34 3.96 4.59 4.75 4.43 3.72 3.14 3.00 2.86 2.66 2.45 2.17 1.96 1.81 1.80 1.74 1.83 1.63 1.57 1.66 1.62 1.48 1.55 1.71 1.80 1.61 1.67
0.02 0.05 0.13 0.20 0.13 0.15 0.28 0.45 0.67 0.82 0.95 1.00 1.17 1.11 1.19 1.33 1.48 1.82 2.13 2.52 2.80 3.11 3.54 4.02 4.47 4.36 4.01 3.56 3.11 2.81 2.44 2.18 1.93 1.62 1.40 1.28 1.23 1.26 1.42 1.27 1.36 1.42 1.36 1.28 1.30 1.38 1.41 1.24 1.49
0.05 0.08 0.17 0.20 0.13 0.14 0.29 0.49 0.76 0.83 0.80 0.80 0.99 1.06 1.07 1.14 1.35 1.63 2.07 2.39 2.65 2.97 3.23 3.42 3.29 2.89 2.64 2.49 2.29 1.96 1.88 1.82 1.75 1.63 1.41 1.18 1.15 1.12 1.07 1.06 1.07 1.12 1.16 1.06 1.03 1.16 1.14 0.97 1.24
0.06 0.08 0.14 0.19 0.21 0.22 0.32 0.64 0.85 0.86 0.75 0.69 0.71 0.80 0.85 0.95 1.14 1.39 1.82 2.05 2.12 2.34 2.45 2.35 2.06 1.65 1.49 1.46 1.32 1.40 1.58 1.69 1.69 1.69 1.58 1.38 1.28 1.23 1.18 1.08 1.00 0.96 0.99 0.99 0.97 1.05 1.06 0.94 0.98
0.09 0.06 0.07 0.09 0.18 0.40 0.46 0.81 1.03 1.03 0.96 0.79 0.69 0.75 0.75 0.77 0.82 1.08 1.35 1.41 1.49 1.57 1.48 1.41 1.27 1.07 0.94 0.91 0.91 0.93 1.09 1.35 1.51 1.66 1.69 1.68 1.56 1.40 1.28 1.15 0.98 0.84 0.81 0.86 0.79 0.86 0.98 0.99 0.89
0.06 0.05 0.06 0.09 0.14 0.29 0.40 0.63 0.99 1.13 1.25 0.86 0.65 0.66 0.60 0.65 0.77 0.92 0.93 0.90 0.95 0.98 0.94 0.89 0.89 0.82 0.80 0.81 0.89 0.87 0.76 0.77 0.74 0.81 0.95 1.09 1.19 1.14 0.98 0.92 0.86 0.77 0.70 0.70 0.74 0.85 0.94 0.96 0.88
0.06 0.09 0.15 0.24 0.36 0.59 0.56 0.59 0.89 0.98 0.98 0.65 0.54 0.62 0.53 0.49 0.56 0.65 0.65 0.64 0.64 0.66 0.68 0.76 0.81 0.82 0.79 0.81 0.81 0.79 0.73 0.73 0.69 0.69 0.72 0.69 0.72 0.73 0.69 0.67 0.70 0.69 0.67 0.68 0.68 0.74 0.84 0.92 0.96
0.08 0.15 0.46 0.80 1.12 1.13 0.62 0.61 0.79 0.69 0.64 0.63 0.54 0.52 0.49 0.40 0.39 0.36 0.36 0.37 0.38 0.38 0.40 0.53 0.60 0.62 0.59 0.59 0.62 0.62 0.68 0.69 0.63 0.56 0.52 0.50 0.48 0.51 0.55 0.58 0.63 0.63 0.68 0.74 0.80 0.81 0.82 0.89 1.00
0.07 0.12 0.32 0.53 0.70 0.79 0.62 0.90 0.91 0.63 0.56 0.48 0.37 0.32 0.34 0.26 0.22 0.18 0.18 0.18 0.22 0.25 0.25 0.30 0.43 0.44 0.44 0.42 0.48 0.59 0.74 0.78 0.73 0.72 0.59 0.54 0.52 0.50 0.53 0.61 0.67 0.66 0.67 0.68 0.78 0.83 0.90 0.97 1.01
0.09 0.08 0.11 0.16 0.29 0.51 0.72 0.89 0.77 0.54 0.51 0.39 0.26 0.19 0.17 0.15 0.11 0.10 0.11 0.12 0.13 0.15 0.16 0.17 0.25 0.35 0.41 0.38 0.41 0.44 0.47 0.54 0.55 0.56 0.56 0.53 0.59 0.54 0.59 0.67 0.76 0.77 0.77 0.79 0.83 0.85 0.95 1.13 1.20
0.09 0.08 0.09 0.12 0.23 0.38 0.62 0.90 0.85 0.61 0.53 0.42 0.29 0.17 0.11 0.09 0.07 0.07 0.05 0.06 0.08 0.11 0.15 0.20 0.19 0.28 0.48 0.55 0.53 0.41 0.32 0.30 0.37 0.46 0.52 0.55 0.59 0.60 0.64 0.69 0.72 0.76 0.77 0.79 0.84 0.90 1.00 1.16 1.24
0.14 0.11 0.10 0.12 0.13 0.24 0.48 0.62 0.47 0.37 0.32 0.29 0.25 0.16 0.12 0.08 0.04 0.03 0.03 0.04 0.07 0.10 0.15 0.28 0.34 0.41 0.56 0.70 0.73 0.60 0.42 0.34 0.36 0.38 0.38 0.41 0.49 0.59 0.67 0.64 0.57 0.54 0.58 0.71 0.86 0.92 1.01 1.10 1.14
0.13 0.13 0.13 0.18 0.16 0.17 0.25 0.37 0.24 0.20 0.18 0.15 0.12 0.10 0.07 0.03 0.02 0.02 0.02 0.02 0.04 0.07 0.17 0.41 0.67 0.94 1.02 1.10 1.16 1.00 0.62 0.40 0.33 0.27 0.26 0.34 0.46 0.56 0.62 0.59 0.53 0.51 0.57 0.70 0.85 1.00 1.20 1.33 1.30

GEFSSGP_prec_meanprecacc_120.txt.gz
Total_Precipitation_Accumulation
0.00 0.03 0.14 0.30 0.50 0.94 1.01 0.55 0.38 0.25 0.26 0.38 0.37 0.28 0.28 0.36 0.41 0.55 0.28 0.24 0.12 0.04 0.03 0.05 0.07 0.06 0.06 0.07 0.08 0.09 0.08 0.08 0.07 0.07 0.06 0.05 0.04 0.04 0.03 0.04 0.04 0.05 0.05 0.05 0.05 0.05 0.04 0.03 0.04
0.01 0.05 0.18 0.38 0.70 1.29 0.90 0.40 0.27 0.22 0.32 0.40 0.32 0.25 0.27 0.26 0.23 0.16 0.15 0.27 0.11 0.04 0.02 0.02 0.06 0.06 0.06 0.07 0.07 0.09 0.10 0.10 0.10 0.08 0.07 0.06 0.06 0.06 0.06 0.05 0.05 0.05 0.05 0.05 0.05 0.05 0.04 0.03 0.04
0.02 0.06 0.22 0.35 0.63 0.94 0.47 0.21 0.18 0.21 0.36 0.39 0.31 0.27 0.29 0.32 0.29 0.20 0.13 0.15 0.11 0.05 0.03 0.03 0.05 0.05 0.05 0.06 0.08 0.09 0.10 0.11 0.11 0.10 0.07 0.07 0.08 0.08 0.08 0.06 0.05 0.05 0.05 0.05 0.05 0.04 0.04 0.04 0.05
0.02 0.09 0.20 0.33 0.48 0.49 0.25 0.15 0.14 0.20 0.34 0.31 0.27 0.36 0.39 0.43 0.27 0.20 0.16 0.12 0.10 0.06 0.05 0.05 0.06 0.06 0.06 0.06 0.08 0.09 0.10 0.11 0.11 0.09 0.09 0.08 0.09 0.09 0.08 0.06 0.06 0.05 0.05 0.06 0.06 0.04 0.04 0.05 0.06
0.03 0.13 0.24 0.34 0.35 0.27 0.20 0.16 0.17 0.18 0.19 0.28 0.33 0.49 0.48 0.44 0.28 0.34 0.32 0.19 0.09 0.09 0.09 0.09 0.09 0.08 0.08 0.07 0.08 0.09 0.10 0.10 0.11 0.09 0.09 0.09 0.09 0.08 0.08 0.07 0.07 0.06 0.05 0.06 0.08 0.07 0.05 0.05 0.06
0.03 0.09 0.17 0.18 0.14 0.13 0.18 0.16 0.15 0.16 0.21 0.32 0.41 0.42 0.48 0.43 0.38 0.53 0.46 0.30 0.18 0.14 0.16 0.17 0.15 0.14 0.12 0.10 0.09 0.10 0.12 0.12 0.12 0.12 0.11 0.11 0.10 0.10 0.10 0.10 0.09 0.09 0.09 0.09 0.08 0.09 0.08 0.07 0.08
0.02 0.04 0.06 0.05 0.06 0.10 0.12 0.12 0.13 0.15 0.28 0.38 0.45 0.50 0.62 0.69 0.56 0.52 0.52 0.50 0.32 0.32 0.43 0.36 0.22 0.18 0.18 0.17 0.16 0.14 0.16 0.17 0.17 0.15 0.14 0.14 0.14 0.14 0.14 0.15 0.15 0.16 0.17 0.16 0.12 0.10 0.12 0.12 0.11
0.01 0.01 0.02 0.02 0.02 0.05 0.05 0.08 0.11 0.16 0.25 0.40 0.51 0.62 0.84 0.86 0.72 0.64 0.66 0.77 0.52 0.43 0.49 0.46 0.30 0.24 0.19 0.17 0.18 0.20 0.20 0.21 0.21 0.19 0.18 0.17 0.17 0.19 0.22 0.22 0.28 0.29 0.33 0.33 0.27 0.21 0.20 0.21 0.20
0.00 0.01 0.01 0.00 0.01 0.01 0.02 0.04 0.08 0.15 0.23 0.31 0.52 0.70 0.71 0.67 0.84 0.83 0.86 1.06 0.98 0.72 0.63 0.55 0.34 0.27 0.26 0.23 0.22 0.26 0.26 0.27 0.26 0.28 0.25 0.27 0.32 0.43 0.58 0.52 0.62 0.58 0.60 0.58 0.53 0.48 0.48 0.50 0.39
0.00 0.00 0.00 0.00 0.00 0.00 0.01 0.03 0.09 0.24 0.39 0.60 0.85 0.83 0.67 0.66 0.99 1.15 1.24 1.38 1.31 1.07 0.95 0.72 0.47 0.37 0.36 0.30 0.33 0.36 0.38 0.50 0.49 0.61 0.67 0.73 0.85 0.84 0.72 0.89 1.10 1.16 1.15 1.07 1.05 1.12 1.03 0.86 0.69
0.00 0.00 0.00 0.00 0.00 0.00 0.01 0.02 0.06 0.18 0.58 0.99 1.21 1.15 0.99 0.91 1.18 1.51 1.75 1.93 1.59 1.20 1.03 0.88 0.69 0.55 0.46 0.46 0.49 0.55 0.66 0.95 0.84 0.80 0.93 1.18 1.11 0.91 0.84 0.98 1.25 1.54 1.56 1.43 1.60 1.75 1.37 1.36 1.40
0.00 0.00 0.00 0.00 0.00 0.00 0.01 0.03 0.12 0.21 0.59 0.82 1.03 1.17 1.23 1.25 1.32 1.52 1.76 1.87 1.93 1.71 1.42 1.16 1.02 0.88 0.88 0.85 0.79 0.74 0.79 0.95 0.93 1.01 0.97 1.27 1.32 1.19 1.14 1.23 1.35 1.58 1.78 2.06 2.07 2.19 2.09 2.00 1.83
0.00 0.00 0.00 0.00 0.00 0.01 0.01 0.06 0.15 0.27 0.52 0.55 0.65 0.82 1.11 1.34 1.63 1.87 1.96 2.11 2.11 2.11 1.84 1.65 1.47 1.37 1.40 1.31 1.18 1.01 1.00 1.00 1.03 1.20 1.23 1.36 1.57 1.61 1.66 1.63 1.54 1.50 1.87 2.28 2.43 2.23 2.47 2.52 2.17
0.00 0.00 0.00 0.00 0.01 0.02 0.03 0.08 0.18 0.32 0.46 0.53 0.59 0.79 1.06 1.38 1.63 1.97 2.18 2.35 2.20 2.25 2.27 2.36 2.23 2.12 2.03 1.97 1.83 1.61 1.47 1.47 1.46 1.51 1.66 1.82 1.95 2.09 2.12 2.00 1.87 1.69 1.76 2.04 2.25 2.27 2.48 2.36 2.28
0.00 0.01 0.04 0.04 0.03 0.04 0.10 0.19 0.35 0.48 0.53 0.69 0.79 1.02 1.17 1.46 1.75 1.83 1.90 2.04 2.14 2.36 2.74 2.99 3.06 2.99 2.87 2.74 2.50 2.18 1.99 2.06 2.21 2.24 2.29 2.28 2.34 2.52 2.41 2.16 1.90 1.81 1.87 1.98 1.98 2.00 2.12 1.98 1.93
0.01 0.03 0.10 0.11 0.07 0.08 0.14 0.38 0.52 0.57 0.69 0.86 0.92 1.16 1.43 1.47 1.72 1.83 1.84 1.98 2.37 2.70 3.15 3.41 3.62 3.76 3.64 3.49 3.16 2.69 2.44 2.41 2.47 2.53 2.51 2.50 2.49 2.41 2.34 2.02 1.70 1.79 1.90 1.87 1.83 1.74 1.83 1.80 1.85
0.02 0.06 0.12 0.19 0.11 0.12 0.19 0.48 0.59 0.61 0.81 0.94 1.12 1.14 1.30 1.47 1.79 2.04 2.15 2.23 2.55 2.98 3.52 3.93 4.41 4.65 4.50 4.02 3.39 2.94 2.84 2.78 2.68 2.67 2.53 2.42 2.29 2.16 2.24 1.92 1.75 1.78 1.73 1.62 1.54 1.72 1.88 1.81 1.82
0.03 0.05 0.12 0.22 0.15 0.14 0.25 0.47 0.67 0.75 0.89 1.06 1.11 1.09 1.20 1.43 1.60 1.86 2.12 2.48 2.73 3.09 3.59 4.20 4.81 4.96 4.60 3.85 3.27 3.12 2.99 2.77 2.53 2.23 2.02 1.85 1.84 1.78 1.85 1.64 1.58 1.67 1.62 1.49 1.56 1.71 1.81 1.61 1.67
0.02 0.05 0.13 0.21 0.14 0.16 0.29 0.45 0.67 0.83 0.96 1.01 1.19 1.15 1.23 1.39 1.56 1.89 2.21 2.65 2.98 3.32 3.81 4.33 4.73 4.56 4.18 3.69 3.23 2.91 2.53 2.27 2.01 1.69 1.44 1.32 1.27 1.29 1.45 1.29 1.36 1.42 1.36 1.29 1.30 1.39 1.42 1.25 1.49
0.05 0.08 0.17 0.20 0.13 0.14 0.30 0.50 0.76 0.84 0.81 0.83 1.03 1.12 1.12 1.18 1.39 1.71 2.16 2.51 2.83 3.20 3.55 3.80 3.69 3.21 2.91 2.70 2.47 2.13 2.02 1.95 1.85 1.71 1.48 1.22 1.18 1.14 1.09 1.07 1.07 1.13 1.16 1.07 1.03 1.16 1.14 0.98 1.24
0.06 0.08 0.14 0.19 0.21 0.22 0.33 0.65 0.86 0.87 0.77 0.72 0.73 0.81 0.87 0.98 1.17 1.45 1.94 2.21 2.34 2.58 2.75 2.70 2.43 2.03 1.86 1.79 1.60 1.64 1.78 1.84 1.79 1.76 1.64 1.41 1.30 1.25 1.19 1.09 1.00 0.96 0.99 0.99 0.97 1.05 1.06 0.94 0.98
0.09 0.06 0.07 0.09 0.19 0.41 0.46 0.82 1.03 1.04 0.98 0.81 0.70 0.76 0.76 0.78 0.84 1.13 1.45 1.56 1.70 1.77 1.71 1.66 1.57 1.40 1.31 1.30 1.24 1.18 1.28 1.48 1.60 1.72 1.74 1.72 1.59 1.42 1.29 1.17 0.98 0.84 0.82 0.87 0.79 0.86 0.98 1.00 0.89
0.06 0.05 0.06 0.09 0.15 0.29 0.41 0.64 0.99 1.14 1.27 0.87 0.66 0.66 0.61 0.66 0.78 0.93 0.97 0.97 1.07 1.10 1.10 1.05 1.09 1.06 1.06 1.13 1.27 1.16 0.98 0.93 0.86 0.90 1.02 1.14 1.22 1.17 1.01 0.94 0.87 0.78 0.70 0.70 0.74 0.85 0.94 0.96 0.88
0.06 0.10 0.15 0.24 0.37 0.60 0.56 0.59 0.89 0.99 0.99 0.65 0.54 0.62 0.53 0.49 0.56 0.65 0.67 0.69 0.72 0.74 0.77 0.86 0.95 1.01 0.97 1.01 1.04 1.07 0.97 0.90 0.82 0.78 0.78 0.75 0.77 0.78 0.73 0.70 0.71 0.70 0.68 0.69 0.69 0.75 0.84 0.92 0.96
0.08 0.15 0.46 0.80 1.12 1.13 0.62 0.61 0.79 0.69 0.64 0.63 0.54 0.52 0.49 0.40 0.40 0.37 0.37 0.40 0.43 0.43 0.45 0.60 0.72 0.81 0.76 0.72 0.74 0.78 0.83 0.80 0.72 0.65 0.59 0.55 0.52 0.54 0.58 0.60 0.64 0.64 0.69 0.74 0.81 0.81 0.82 0.89 1.00
0.08 0.12 0.32 0.53 0.70 0.79 0.62 0.90 0.91 0.63 0.56 0.49 0.37 0.32 0.34 0.26 0.22 0.18 0.18 0.19 0.24 0.29 0.29 0.34 0.49 0.57 0.63 0.58 0.59 0.69 0.84 0.87 0.80 0.77 0.64 0.58 0.56 0.53 0.55 0.63 0.69 0.68 0.68 0.69 0.79 0.83 0.90 0.97 1.01
0.09 0.08 0.11 0.17 0.29 0.51 0.72 0.90 0.78 0.55 0.51 0.40 0.26 0.19 0.18 0.15 0.11 0.10 0.12 0.12 0.14 0.17 0.21 0.20 0.28 0.41 0.51 0.54 0.55 0.54 0.55 0.61 0.60 0.60 0.58 0.56 0.62 0.57 0.62 0.69 0.78 0.79 0.78 0.80 0.84 0.85 0.95 1.13 1.20
0.10 0.08 0.09 0.12 0.24 0.38 0.62 0.90 0.85 0.62 0.53 0.42 0.29 0.17 0.11 0.10 0.07 0.07 0.06 0.07 0.09 0.12 0.19 0.23 0.22 0.32 0.54 0.67 0.64 0.52 0.40 0.35 0.42 0.50 0.55 0.57 0.60 0.62 0.66 0.71 0.74 0.78 0.79 0.80 0.85 0.90 1.00 1.16 1.24
0.14 0.11 0.10 0.12 0.14 0.25 0.48 0.62 0.47 0.37 0.32 0.29 0.25 0.17 0.13 0.09 0.05 0.03 0.03 0.04 0.07 0.11 0.18 0.32 0.37 0.44 0.60 0.78 0.82 0.70 0.50 0.41 0.42 0.43 0.42 0.44 0.51 0.61 0.68 0.65 0.59 0.56 0.60 0.72 0.87 0.93 1.01 1.10 1.14
0.14 0.13 0.13 0.18 0.17 0.17 0.26 0.37 0.24 0.20 0.19 0.15 0.12 0.11 0.07 0.04 0.03 0.02 0.02 0.02 0.04 0.08 0.18 0.46 0.71 0.98 1.07 1.18 1.26 1.08 0.69 0.49 0.40 0.33 0.31 0.37 0.48 0.58 0.63 0.60 0.54 0.53 0.58 0.71 0.86 1.00 1.20 1.33 1.30